logo
Search for airport 
image banner adimage banner adimage banner ad
image banner ad

EDCU - Guestrow

Located in Gustrow, Germany

ICAO - EDCU, IATA -

Data provided by Airmate  

General information

Coordinates: N53°48'21" E12°13'54"
Elevation is 46 feet MSL.
Magnetic variation is 4.0000° East
View others Airports in Mecklenburg-Vorpommern

Operational data

Special qualification required
Current time UTC:
Current local time:
Weather at : ETNL - Laage ( 13 km )
METAR: ETNL 222120Z 14002KT 9999 FEW080 11/11 Q1005 BLU+
TAF: TAF ETNL 221600Z 2217/2305 20005KT 9999 NSW FEW030 BKN250
View NOTAMs / SUP AIP / TFR affecting this airport [VIEW]
Communications frequencies: [VIEW]

Runways:

RWY identifierQFULength (ft)Width (ft)SurfaceLDA (ft)
0886°2592131GRASS2592
26266°2592131GRASS2592

Airport contact information

Address: Gustrow Germany

Satellite view of EDCU